Location: Newark
(50.1751°N, 5.6239°W)
Time: 14:13:33
(UTC+00:00)

Nauka - Pass Details

Date: 21 September 2021
Orbit: 417 x 423 km, 51.6° (Epoch: 24 October)

Event Time Altitude Azimuth Distance (km) Brightness Sun altitude
Rises 21:12:11 0° 273° (W) 2,366 ? -26.2°
Reaches altitude 10° 21:14:18 10° 277° (W) 1,503 ? -26.5°
Enters shadow 21:15:43 23° 282° (WNW) 946 ? -26.7°
